Location: Melizzano
(41.1500°N, 14.5000°E)
Time: 07:39:25
(UTC+00:00)

Cosmos 1943 Rocket - Pass Details

Date: 11 May 2021
Orbit: 814 x 842 km, 71.0° (Epoch: 20 June)

Event Time Altitude Azimuth Distance (km) Brightness Sun altitude
Exits shadow 20:32:25 17° 78° (ENE) 1,985 3.9 -21.8°
Drops below altitude 10° 20:34:41 10° 56° (NE) 2,447 4.6 -22.0°
Sets 20:37:45 0° 40° (NE) 3,380 5.5 -22.4°
